Location: Antioch Baptist Church
(32.6696°N, 85.7327°W)
Time: 21:09:30
(UTC+00:00)

deb Chang Zheng 4 - Pass Details

Date: 14 July 2020
Orbit: 603 x 626 km, 98.6° (Epoch: 13 August)

Event Time Altitude Azimuth Distance (km) Brightness Sun altitude
Rises 09:53:34 0° 9° (N) 2,869 7.7 -10.3°
Reaches altitude 10° 09:55:45 10° 6° (N) 1,964 6.7 -9.9°
Maximum altitude 09:59:58 66° 285° (WNW) 670 3.6 -9.2°
Drops below altitude 10° 10:04:12 10° 203° (SSW) 1,965 5.6 -8.4°
Enters shadow 10:05:17 - 202° (SSW) 2,408 6.1 -8.3°
